Location: Zapote
(9.9191°N, 84.0597°W)
Time: 10:34:36
(UTC-06:00)

Envisat - Visible Passes

Search period start: 24 January 2021 00:00
Search period end: 03 February 2021 00:00
Orbit: 764 x 766 km, 98.1° (Epoch: 23 January)

Date Brightness Start Highest point End Pass type
(mag) Time Alt. Az. Time Alt. Az. Time Alt. Az.
24 Jan 5.1 04:24:47 10° NE 04:29:06 28° E 04:33:24 10° SSE visible
25 Jan 3.2 05:26:19 10° N 05:31:11 48° WNW 05:36:03 10° SSW visible
25 Jan 6.5 18:05:43 10° WSW 18:07:41 12° W 18:09:39 10° WNW visible
26 Jan 3.6 04:49:29 10° NNE 04:54:28 59° ESE 04:59:27 10° S visible
27 Jan 5.5 04:13:57 10° NE 04:17:42 21° E 04:21:26 10° SSE visible
28 Jan 2.9 05:14:47 10° N 05:19:48 67° WNW 05:24:50 10° SSW visible
29 Jan 4.3 04:38:18 10° NNE 04:43:05 43° ESE 04:47:51 10° S visible
30 Jan 6.0 04:03:24 10° ENE 04:06:17 15° E 04:09:10 10° SE visible
31 Jan 3.0 05:03:20 10° NNE 05:08:25 90° E 05:13:30 10° SSW visible
01 Feb 4.9 04:27:13 10° NE 04:31:40 31° E 04:36:08 10° SSE visible
02 Feb 6.3 03:53:43 10° E 03:54:53 11° E 03:56:03 10° ESE visible
02 Feb 3.3 05:28:57 10° N 05:33:44 43° WNW 05:38:32 10° SSW visible
02 Feb 6.7 18:09:06 10° WSW 18:10:15 11° W 18:11:24 10° W visible
